User: anonymous   Login
Location: D�derode
(51.8092°N, 10.1065°E)
Time: 02:29:06
(UTC+00:00)
Language:

COSMOS 2428 - Orbit

View from above orbital plane
View from above orbital plane
View from above satellite
View from above satellite

Ground track
Ground track

The orbit data is extracted from the following two-line orbital elements,

1 31792U 07029A   21060.46194105 -.00000003  00000-0  24359-4 0  9990
2 31792  70.8905  92.9492 0004859  22.9866 337.1471 14.12237540705150
Epoch (UTC): 01 March 2021 11:05:11
Eccentricity: 0.0004859
inclination: 70.8905°
perigee height: 848 km
apogee height: 855 km
right ascension of ascending node: 92.9492°
argument of perigee: 22.9866°
revolutions per day: 14.12237540
mean anomaly at epoch: 337.1471°
orbit number at epoch: 70515

The dashed part of the orbit path shows where the satellite is in the earth's shadow,  

DLR